Location: Calderara di Reno
(44.5667°N, 11.2667°E)
Time: 12:41:49
(UTC+00:00)

Daily predictions for brighter satellites

Satellite Brightness Start Highest point End
(mag) Time Altitude Azimuth Time Altitude Azimuth Time Altitude Azimuth
Cosmos 1624 Rocket 4.4 19:30:22 10° SSW 19:35:34 70° WNW 19:40:46 10° NNE
Lacrosse 5 2.1 19:32:09 10° NW 19:37:14 66° SW 19:42:16 10° SE
NOSS 2-1 (C) 4.2 19:36:16 10° NW 19:40:55 88° SW 19:47:34 10° SE
Meteor 1-24 Rocket 3.7 19:39:15 10° S 19:44:34 89° ESE 19:50:05 10° N
Cosmos 1271 Rocket 2.8 19:45:12 10° N 19:49:11 73° E 19:53:05 10° SSE
H-2A R/B 4.1 19:46:03 10° SSW 19:49:22 29° W 19:52:45 10° NW
Cosmos 2082 Rocket 3.8 19:46:20 10° SE 19:49:26 15° E 19:52:32 10° ENE
NOSS 2-1 (D) 4.3 19:46:41 10° NW 19:51:23 75° SW 19:58:06 10° SSE
USA 276 3.9 19:49:58 10° WNW 19:52:44 32° N 19:55:30 10° NE
H-2A R/B 2.4 19:51:14 10° N 19:55:41 74° WNW 20:00:09 10° SSW
USA 245 3.9 19:52:51 10° SE 19:56:46 40° ENE 19:59:57 10° N
Cosmos 1536 Rocket 3.8 19:52:41 10° SSE 19:56:49 47° E 20:01:01 10° NNE
Cosmos 1455 2.2 19:54:42 10° N 19:58:33 88° E 20:02:22 10° S
CARTOSAT-1 3.7 19:56:57 10° SSE 20:01:12 63° ENE 20:05:28 10° N
ARIANE 5 R/B 4.5 19:58:36 10° ESE 20:01:36 18° ENE 20:04:37 10° NNE
SL-24 R/B 4.3 19:59:22 10° SSE 20:03:43 86° ENE 20:08:41 10° NNW
Cosmos 1741 Rocket 4.3 19:59:56 10° NNW 20:05:12 59° ENE 20:09:58 13° SE
ATLAS 5 CENTAUR R/B 3.7 19:54:41 10° NW 20:06:32 53° WSW 20:10:20 10° SSE
Tiangong 3.4 20:06:14 10° WSW 20:08:00 14° SSW 20:09:44 10° S
SPOT 3 Rocket 3.6 20:05:32 10° SSE 20:10:40 70° ENE 20:15:53 10° N
Ariane Rocket 3.2 20:07:10 10° S 20:12:15 74° WSW 20:17:22 10° NNW
Cosmos 2074 Rocket 4.1 20:07:31 10° N 20:13:46 65° E 20:19:38 12° SSE
Cosmos 1544 Rocket 4.3 20:16:13 10° NNW 20:20:26 51° W 20:24:38 10° S
GEOS 3 Rocket 4.3 20:17:17 11° SSE 20:22:04 45° WSW 20:26:58 10° NW
Lacrosse 5 rocket 3.8 20:20:56 10° WSW 20:22:09 11° WSW 20:23:22 10° SW
Cosmos 1656 3.9 20:17:50 10° NNW 20:23:18 69° WSW 20:28:15 13° SSE
Nadezhda 1 Rocket 4.2 20:18:41 11° SSE 20:24:23 50° E 20:30:13 10° NNE
ATLAS 2AS CENTAUR R/B 3.6 20:23:23 10° NW 20:29:49 40° WSW 20:35:52 10° S
Cosmos 1850 Rocket 4.0 20:26:57 10° NNW 20:32:10 80° WSW 20:36:20 16° SSE
SL-16 R/B 4.4 20:31:06 10° N 20:34:04 14° NE 20:37:01 10° ENE
Cosmos 1980 Rocket 3.0 20:29:42 10° NNW 20:35:03 39° NE 20:39:07 16° ESE
Cosmos 1697 Rocket 2.7 20:29:49 10° NNW 20:35:27 73° ENE 20:39:32 19° SE
Cosmos 1331 Rocket 4.0 20:32:11 10° SSW 20:37:28 78° ESE 20:42:47 10° NNE
Cosmos 2344 4.5 20:28:56 10° NW 20:37:47 67° NE 20:48:13 15° SE
SL-8 R/B 3.7 20:33:11 10° WNW 20:38:00 76° SSW 20:41:22 20° ESE
Cosmos 2369 4.3 20:33:03 10° NNW 20:38:35 47° ENE 20:42:35 18° SE
Spot 2 Rocket 3.5 20:38:46 17° SSE 20:42:44 89° ENE 20:47:53 10° NNW
COSMOS 2406 3.3 20:37:11 10° S 20:42:48 58° ESE 20:48:26 10° NNE
Cosmos 2154 Rocket 4.0 20:39:09 10° N 20:45:24 80° E 20:50:11 18° SSE
X-37B 0.2 20:43:17 10° W 20:46:05 68° SSW 20:47:01 36° ESE
ATLAS 5 CENTAUR R/B 3.0 20:48:00 16° E 20:48:00 16° E 20:49:48 10° ENE
CZ-2C R/B 3.7 20:44:09 10° NNE 20:48:41 65° ESE 20:51:58 18° S
SPOT 5 2.7 20:49:45 20° S 20:52:47 73° WSW 20:57:07 10° NNW
Cosmos 1703 4.2 20:51:49 10° SSW 20:55:31 45° WNW 20:59:15 10° N
Cosmos 2084 Rocket 3.3 20:54:09 10° NW 20:58:05 72° NE 21:00:03 29° SE
RESURS DK-1 3.4 20:55:03 10° NW 20:58:53 38° WSW 21:01:19 19° SSW
Cosmos 1833 Rocket 3.1 20:53:25 10° SW 20:58:58 65° WNW 21:04:36 10° NNE
Terra 1.8 20:56:27 23° SSE 20:59:25 87° ENE 21:04:13 10° NNW
CZ-4B R/B 4.3 21:01:05 10° NW 21:02:11 12° WNW 21:03:17 10° W
Helios 1A Rocket 3.3 21:01:06 22° S 21:03:35 58° WSW 21:07:39 10° NNW
ASTEX 1 4.1 20:59:33 10° NNE 21:04:15 39° E 21:06:20 27° SE
ERS-1 Rocket 3.2 21:02:33 20° S 21:06:00 66° WSW 21:11:02 10° NNW
Cosmos 1892 Rocket 3.6 21:04:14 27° SSE 21:06:28 63° E 21:10:48 10° NNE
Resurs 01 Rocket 4.2 21:04:40 10° WSW 21:06:58 14° W 21:09:15 10° WNW
Cosmos 1302 Rocket 3.9 21:03:52 17° S 21:07:53 71° ESE 21:13:04 10° NNE
Cosmos 2322 Rocket 4.3 21:06:05 10° N 21:09:56 18° NE 21:13:45 10° E
Cosmos 2228 3.9 21:08:27 10° NNW 21:12:28 42° W 21:15:16 18° SSW
Cosmos 2058 Rocket 3.4 21:09:13 10° N 21:13:34 53° ENE 21:15:19 32° SE
Cosmos 1825 3.4 21:15:03 25° E 21:15:21 25° E 21:18:29 10° NNE
Cosmos 1408 2.5 21:16:15 46° SSE 21:16:59 59° E 21:20:23 10° NNE
Meteor 1-11 4.2 21:15:39 25° S 21:18:58 69° E 21:24:32 10° NNE
Lacrosse 5 4.2 21:17:52 10° W 21:19:19 11° WSW 21:20:46 10° SW
Cosmos 2278 4.2 21:15:45 10° NNW 21:21:21 53° ENE 21:24:23 26° SE
Cosmos 2366 rocket 4.4 21:17:55 10° N 21:24:06 53° ENE 21:27:19 28° SE
Cosmos 968 Rocket 3.4 21:18:54 10° NNW 21:24:08 90° E 21:26:36 32° SSE
Cosmos 1328 4.5 21:22:05 19° SSW 21:24:45 51° WNW 21:28:41 10° N
Cosmos 2218 Rocket 4.3 21:21:18 10° N 21:27:37 56° ENE 21:30:50 29° SE
USA 276 3.8 21:26:13 10° NW 21:28:59 31° N 21:31:02 15° ENE
Cosmos 2082 Rocket 2.2 21:27:22 12° SSW 21:32:43 83° WNW 21:38:28 10° NNE
BREEZE-M DEB (TANK) 4.4 21:15:30 10° SW 21:33:14 77° SSE 21:37:44 10° ENE
SJ 16-02 3.4 21:30:16 10° NNE 21:33:18 18° ENE 21:35:23 13° E
Cosmos 1867 3.5 21:28:34 10° NW 21:34:05 89° ENE 21:36:30 35° SE
USA 267 3.2 21:30:31 10° NE 21:36:58 58° SE 21:43:22 10° SSW
ARIANE 5 R/B 3.2 21:35:43 29° SSW 21:37:41 50° W 21:42:01 10° NNW
GP-B 3.0 21:37:37 10° N 21:42:05 87° E 21:43:35 42° S
Cosmos 1959 Rocket 4.5 21:36:55 10° N 21:43:02 70° E 21:45:49 34° SSE
Cosmos 2341 Rocket 4.0 21:37:23 10° N 21:43:43 80° W 21:47:01 30° S
Cosmos 2360 Rocket 4.1 21:41:45 10° N 21:46:02 21° NE 21:50:16 10° E
SAR-Lupe-4 3.5 21:42:30 10° NNE 21:46:05 87° WNW 21:46:46 57° SSW
Cosmos 1606 4.5 21:49:56 10° NNE 21:52:51 20° ENE 21:53:24 20° E
Cosmos 864 Rocket 4.4 21:46:50 10° N 21:53:03 83° E 21:55:52 35° SSE
Okean 1-7 Rocket 3.5 21:58:40 47° S 21:59:55 89° W 22:04:27 10° N
Cosmos 1892 3.6 22:02:06 31° WSW 22:03:19 41° WNW 22:06:55 10° N
Cosmos 1758 Rocket 3.9 22:08:36 46° ESE 22:09:04 48° E 22:13:17 10° NNE
Cosmos 2181 Rocket 4.1 22:07:21 29° SSW 22:10:40 71° W 22:16:55 10° N
USA 234 3.8 22:04:42 12° ESE 22:10:46 58° NNE 22:17:11 10° NW
Cosmos 1633 2.7 22:12:09 57° ENE 22:12:09 57° ENE 22:15:17 10° NNE
Cosmos 1992 Rocket 4.3 22:15:18 28° SW 22:18:01 65° WNW 22:23:15 10° NNE
Cosmos 1980 Rocket 3.2 22:13:53 10° NW 22:18:57 34° WSW 22:20:52 27° SW
Cosmos 1821 Rocket 4.1 22:12:54 10° N 22:19:07 67° E 22:21:23 39° SSE
SL-16 R/B 2.3 22:13:37 10° NNW 22:19:18 68° ENE 22:21:23 39° SE
Cosmos 1486 Rocket 4.1 22:14:27 10° NNW 22:19:39 68° WSW 22:21:05 46° S
SL-4 R/B 4.0 22:23:23 15° ENE 22:23:23 15° ENE 22:24:10 10° ENE
Cosmos 1812 Rocket 3.5 22:16:57 10° N 22:21:25 78° E 22:22:08 61° SSE
Cosmos 2219 Rocket 4.4 22:19:05 10° N 22:23:05 19° NE 22:27:03 10° E
Cosmos-2242 2.8 22:26:30 10° N 22:30:45 77° E 22:31:12 68° SE
ATLAS 5 CENTAUR R/B 2.3 22:29:23 24° WSW 22:31:17 43° NW 22:35:17 10° NNE
Cosmos 1602 Rocket 3.6 22:32:11 56° SW 22:32:57 70° W 22:37:16 10° N
Cosmos 1869 4.2 22:31:10 10° NNW 22:34:47 37° W 22:35:09 36° WSW
Terra 4.4 22:36:50 10° W 22:37:49 11° W 22:38:48 10° WNW
ERS-2 3.4 22:35:05 10° NNE 22:37:40 29° ENE 22:37:40 29° ENE
Nadezhda 3 Rocket 3.9 22:36:22 44° S 22:38:28 77° E 22:44:38 10° N
ALOS 2 2.5 22:39:48 67° SSE 22:40:23 85° ENE 22:44:49 10° NNW
FALCON 9 DEB 4.5 22:40:25 10° WNW 22:42:17 31° WNW 22:42:17 31° WNW
Cosmos 1354 Rocket 3.9 22:42:36 10° NNW 22:47:55 79° WSW 22:49:06 55° S
ADEOS Rocket 3.5 22:45:43 38° SSE 22:48:56 88° WSW 22:56:44 10° NNW
BREEZE-M DEB (TANK) 4.3 22:45:56 10° WNW 22:49:37 71° NNE 23:05:28 10° ESE
Cosmos 1825 4.1 22:49:40 19° W 22:50:40 22° WNW 22:53:37 10° NNW
Cosmos 2322 Rocket 2.1 22:49:04 10° NNW 22:54:47 89° WSW 22:56:24 49° SSE
Cosmos 1503 Rocket 4.3 22:52:30 10° NNW 22:57:38 53° WSW 22:58:35 46° SW
Cosmos 1953 Rocket 3.7 22:58:43 58° ESE 22:59:02 60° E 23:03:23 10° NNE
PSLV R/B 4.1 22:57:56 10° NNE 23:02:33 49° E 23:03:01 47° ESE
USA 276 4.4 23:01:54 10° WNW 23:02:50 18° WNW 23:02:50 18° WNW
Cosmos 1777 Rocket 3.9 23:00:26 10° NNW 23:05:45 84° WSW 23:06:53 57° S
Cosmos 1825 Rocket 3.5 23:08:18 63° WSW 23:08:43 68° W 23:13:04 10° N
Cosmos 2333 Rocket 2.9 23:04:25 10° NNW 23:10:02 50° ENE 23:12:51 28° ESE
CENTAUR R/B 3.8 23:09:34 21° ESE 23:10:12 21° ESE 23:14:55 10° ENE
Gbstr 26 Del rocket 2.9 23:11:09 70° SW 23:11:37 82° SSE 23:16:46 10° ENE
SJ 16-02 1.6 23:07:52 10° NNW 23:12:11 53° WSW 23:12:19 52° WSW
COSMOS 2487 4.5 23:13:59 18° ENE 23:13:59 18° ENE 23:15:12 10° NE
Cosmos 1340 Rocket 2.7 23:13:04 86° NNE 23:13:04 86° NNE 23:16:58 10° N
STPSAT 2 (USA 217) 4.5 23:09:11 10° NNW 23:13:50 87° WSW 23:14:22 70° SSE
USA 267 4.0 23:13:37 10° NE 23:19:55 53° NNW 23:26:13 10° WSW
Celestis-02/Orion 38 4.4 23:19:53 53° SSE 23:21:10 90° NW 23:26:17 10° NNW
Meteor 2-3 Rocket 4.3 23:20:57 37° SE 23:22:21 44° E 23:27:37 10° NNE
Cosmos 2058 3.5 23:26:08 43° W 23:26:34 45° WNW 23:30:37 10° N
Cosmos 2221 2.4 23:23:31 10° N 23:27:54 77° E 23:28:17 70° SE
Cosmos 1606 4.0 23:25:05 10° NNW 23:28:16 29° W 23:28:16 29° W
Cosmos 1842 Rocket 3.8 23:26:08 10° N 23:30:36 62° E 23:31:14 55° ESE
Cosmos 2360 Rocket 2.1 23:24:58 10° NNW 23:30:39 73° WSW 23:32:00 52° S
Cosmos 1934 Rocket 4.0 23:25:10 10° NNW 23:31:14 70° W 23:33:06 45° SSW
Nimbus 7 Rocket 4.4 23:28:40 10° NNE 23:34:38 87° WNW 23:36:36 46° SSW
Cosmos 2333 4.3 23:29:23 10° NNW 23:35:13 78° ENE 23:37:21 40° SE
Resurs 1-4 Rocket 4.2 23:32:53 10° NE 23:36:02 16° E 23:38:01 13° ESE
Cosmos 1782 3.7 23:33:00 10° N 23:36:44 38° ENE 23:37:13 36° E
Cosmos 1833 4.2 23:39:57 45° SW 23:41:44 75° WNW 23:47:21 10° NNE
Cosmos 44 3.2 23:41:21 55° WSW 23:42:13 73° NW 23:46:42 10° NNE
CZ-2D R/B 4.0 23:41:17 10° NE 23:44:44 17° E 23:46:39 15° ESE
Cosmos 1727 Rocket 4.2 23:51:12 39° SSE 23:53:31 65° E 23:59:44 10° NNE
Cosmos 2237 Rocket 4.2 23:50:29 10° N 23:55:04 24° NE 23:59:37 10° ESE
